TimeEST,TemperatureF,Dew PointF,Humidity,Sea Level PressureIn,VisibilityMPH,Wind Direction,Wind SpeedMPH,Gust SpeedMPH,PrecipitationIn,Events,Conditions,WindDirDegrees,DateUTC
12:53 AM,39.9,37.0,89,30.20,10.0,Calm,Calm,-,N/A,,Clear,0,2013-03-08 05:53:00
1:53 AM,39.0,36.0,89,30.20,10.0,Calm,Calm,-,N/A,,Clear,0,2013-03-08 06:53:00
2:53 AM,39.0,36.0,89,30.20,10.0,NNE,4.6,-,N/A,,Clear,30,2013-03-08 07:53:00
3:53 AM,36.0,34.0,93,30.21,8.0,West,4.6,-,N/A,,Clear,280,2013-03-08 08:53:00
4:53 AM,41.0,34.0,76,30.23,10.0,NNE,8.1,-,N/A,,Clear,30,2013-03-08 09:53:00
5:53 AM,39.9,32.0,73,30.25,10.0,NE,8.1,-,N/A,,Clear,40,2013-03-08 10:53:00
6:53 AM,39.0,30.9,73,30.26,10.0,NNE,9.2,-,N/A,,Clear,30,2013-03-08 11:53:00
7:53 AM,42.1,30.0,62,30.27,10.0,NE,10.4,17.3,N/A,,Clear,40,2013-03-08 12:53:00
8:53 AM,45.0,30.0,56,30.30,10.0,NE,12.7,-,N/A,,Clear,50,2013-03-08 13:53:00
9:53 AM,50.0,30.0,46,30.29,10.0,ENE,6.9,-,N/A,,Clear,70,2013-03-08 14:53:00
10:53 AM,54.0,30.0,40,30.29,10.0,NNE,6.9,-,N/A,,Clear,20,2013-03-08 15:53:00
11:53 AM,55.9,30.0,37,30.29,10.0,Calm,Calm,-,N/A,,Clear,0,2013-03-08 16:53:00
12:53 PM,59.0,30.9,35,30.26,10.0,Calm,Calm,-,N/A,,Clear,0,2013-03-08 17:53:00
1:53 PM,62.1,30.9,31,30.23,10.0,Variable,6.9,-,N/A,,Clear,0,2013-03-08 18:53:00
2:53 PM,63.0,30.9,30,30.20,10.0,NW,9.2,-,N/A,,Clear,310,2013-03-08 19:53:00
3:53 PM,63.0,30.0,29,30.18,10.0,NW,9.2,-,N/A,,Clear,310,2013-03-08 20:53:00
4:53 PM,64.0,28.0,26,30.17,10.0,NNW,6.9,-,N/A,,Clear,340,2013-03-08 21:53:00
5:53 PM,62.1,26.1,25,30.19,10.0,NNW,9.2,-,N/A,,Clear,340,2013-03-08 22:53:00
6:53 PM,55.0,28.0,35,30.21,10.0,NNW,4.6,-,N/A,,Clear,340,2013-03-08 23:53:00
7:53 PM,51.1,33.1,50,30.24,10.0,West,3.5,-,N/A,,Clear,260,2013-03-09 00:53:00
8:53 PM,46.9,37.0,68,30.27,10.0,NNE,3.5,-,N/A,,Clear,20,2013-03-09 01:53:00
9:53 PM,46.9,32.0,56,30.27,10.0,NNE,5.8,-,N/A,,Clear,20,2013-03-09 02:53:00
10:53 PM,48.0,27.0,44,30.25,10.0,NE,6.9,-,N/A,,Clear,40,2013-03-09 03:53:00
11:53 PM,41.0,30.9,67,30.27,10.0,Calm,Calm,-,N/A,,Clear,0,2013-03-09 04:53:00